Wind_Speed
22 24 25 22 21 20 23 23 20 20 20 20 20 19 17 16 16 17 19 21 23 24 24 24 24 23 21 20 19 19 18 17 16 16 17 17 17 17 17 17 16 17 19 20 20 21 22 23 25 26 25 25 24 22 22 21 21 20 20 19 18 18
24 25 24 22 21 20 18 18 20 22 21 20 19 18 17 16 16 19 21 23 25 26 25 25 25 24 22 21 20 19 18 18 18 18 18 18 18 18 17 18 18 18 19 21 21 22 23 24 26 28 28 27 26 24 24 23 23 22 21 20 20 20
24 22 22 21 20 21 21 21 21 22 19 18 18 17 16 16 18 21 23 24 25 24 23 24 24 23 22 20 20 18 18 18 19 19 18 17 17 17 17 18 18 19 20 21 22 22 23 25 27 29 29 29 28 26 25 25 24 23 22 21 21 21
20 19 21 21 20 22 22 22 21 22 20 16 16 17 17 18 20 22 24 23 21 20 19 20 21 20 19 19 18 18 18 18 17 16 16 16 16 17 18 19 19 20 20 21 22 22 23 25 27 29 30 29 29 27 26 25 24 24 23 23 22 23
19 20 21 19 22 23 21 19 14 15 17 14 14 15 16 18 20 22 22 20 18 17 17 18 18 18 18 18 18 17 17 16 15 14 14 16 17 17 19 19 20 20 21 20 21 22 23 24 26 28 29 29 28 27 26 25 25 25 24 24 24 24
19 19 20 18 22 25 23 19 11 7 8 9 11 11 13 15 17 17 17 16 16 16 18 18 17 17 17 17 16 16 15 14 13 13 13 14 17 18 19 20 20 20 20 19 19 21 22 23 25 27 27 28 27 27 26 26 26 26 26 25 25 25
21 22 21 17 20 24 23 19 15 13 11 9 10 11 12 13 12 12 13 14 16 18 18 17 15 15 15 15 14 14 14 13 12 12 12 12 14 17 18 19 20 20 20 19 19 20 21 23 25 26 27 27 27 26 26 27 28 28 27 26 26 26
22 24 21 16 18 22 21 17 16 18 16 13 13 12 12 12 11 11 12 14 16 16 14 13 13 13 12 13 13 13 13 12 11 11 11 12 14 15 17 19 19 19 20 20 20 20 21 22 23 24 25 25 25 25 26 27 27 27 27 27 27 27
22 23 19 16 18 19 20 21 20 19 17 15 14 13 12 12 12 12 12 13 13 12 11 11 11 11 11 11 11 12 13 13 12 11 12 13 14 15 16 17 18 19 19 20 21 21 21 21 22 23 23 23 23 24 24 25 25 25 26 26 26 27
23 23 20 18 20 22 23 23 21 18 16 15 14 13 12 12 12 12 12 12 12 10 10 10 11 11 10 9 10 11 12 13 12 12 12 12 13 14 14 15 16 17 17 17 18 20 21 22 22 23 22 22 23 24 24 24 25 25 25 26 26 27
22 23 22 24 26 28 27 24 21 18 16 13 11 10 10 11 11 12 12 11 10 10 10 10 11 11 11 10 10 11 11 11 11 11 11 11 13 14 14 15 16 16 17 17 17 18 20 21 22 22 23 23 23 24 24 24 25 26 26 27 27 27
17 18 21 24 23 25 30 29 24 19 14 11 9 8 9 10 12 12 11 9 9 10 11 11 11 12 13 12 11 11 10 9 9 9 9 10 10 11 12 13 14 14 15 16 17 17 18 20 21 22 23 24 24 25 25 26 26 26 27 26 26 27
14 14 17 22 20 18 23 25 20 14 11 8 7 7 9 10 12 12 10 9 10 11 10 10 11 14 14 12 11 10 8 8 8 8 9 9 9 8 8 8 8 8 10 12 14 16 17 18 19 21 23 24 25 25 26 27 28 28 27 26 26 27
12 10 12 17 15 10 11 14 11 9 7 6 7 8 9 10 11 11 10 10 11 11 11 10 11 13 12 11 11 9 8 8 8 9 10 10 10 9 7 6 6 7 8 10 11 13 14 15 17 18 20 21 22 24 25 27 28 28 28 27 27 26
6 3 6 12 13 10 8 9 8 7 6 6 8 10 10 10 9 9 9 9 11 11 11 10 11 11 10 10 10 10 9 8 9 10 10 11 11 9 7 8 8 10 10 10 10 11 12 13 14 14 15 17 19 21 23 26 28 29 29 29 29 28
5 2 2 9 12 10 7 7 6 5 6 8 10 11 11 10 9 9 9 9 10 11 10 10 11 11 10 10 10 10 10 9 10 11 11 12 11 8 8 9 10 11 11 10 11 11 11 12 13 14 14 14 16 18 20 22 24 25 26 26 28 28
8 4 2 5 7 7 6 6 7 7 8 10 11 12 12 11 10 9 9 9 10 11 11 10 11 10 10 10 10 10 10 11 11 11 12 12 11 9 8 9 10 10 9 10 11 11 11 11 11 12 13 14 14 16 18 20 21 21 22 22 24 25
13 9 8 9 8 7 9 10 9 9 10 12 13 13 12 11 11 10 10 10 10 11 11 10 10 9 9 10 10 10 10 11 11 11 13 12 11 10 10 9 10 10 10 11 11 11 10 10 10 10 12 13 13 14 16 18 19 20 21 22 23 23
17 18 19 20 14 10 11 12 11 11 11 13 13 13 12 12 12 11 11 10 10 11 11 10 10 10 9 10 11 10 10 10 11 11 13 13 11 11 12 11 10 10 11 12 11 10 10 10 10 10 10 11 12 13 14 15 16 18 20 22 23 23
16 20 23 22 17 11 10 11 12 12 12 12 13 13 13 12 12 12 11 10 10 10 10 10 11 10 10 10 11 11 10 9 10 11 13 14 13 13 14 13 13 13 14 13 12 11 11 12 12 11 10 11 12 13 14 15 15 16 17 20 22 23
13 15 16 16 15 11 10 11 12 12 11 12 12 13 13 13 12 11 10 9 9 9 10 10 11 10 10 10 11 11 10 10 10 11 13 14 14 14 15 15 15 15 15 15 14 13 13 14 14 13 13 13 14 15 15 15 15 15 16 18 19 21
11 12 12 13 12 11 11 11 12 11 11 12 13 14 14 14 11 10 9 8 7 7 8 10 10 10 10 11 11 11 11 11 11 12 13 14 14 14 15 15 16 16 16 16 15 15 14 15 15 15 15 15 15 16 16 16 16 16 16 16 16 16
13 12 12 12 11 10 11 12 11 11 11 12 13 13 14 12 10 8 8 8 7 6 7 8 9 10 10 10 11 11 11 12 12 12 13 14 15 15 15 16 17 18 18 16 15 15 15 16 16 17 17 17 17 17 17 17 17 16 16 15 14 14
13 12 11 11 11 12 12 12 11 11 11 11 11 11 11 9 8 7 7 7 7 6 6 7 8 9 10 11 11 11 12 12 12 13 13 15 16 16 16 17 18 19 18 17 17 16 17 17 18 18 19 19 19 19 19 20 18 17 17 17 16 16
11 11 12 12 13 13 13 12 11 11 10 10 9 8 8 8 9 9 8 8 8 8 7 6 7 8 9 11 11 12 12 12 13 13 14 15 16 16 17 17 18 19 19 19 18 18 18 19 19 20 20 20 21 20 20 21 21 18 17 18 18 18
8 10 13 15 15 14 13 12 11 10 9 9 9 8 8 9 11 12 12 10 9 10 9 8 8 9 10 11 12 13 13 14 14 14 15 15 16 17 17 18 19 19 20 20 20 20 20 20 21 22 22 22 22 22 21 21 21 20 19 19 20 20
9 12 15 16 15 14 13 13 12 12 11 11 11 11 10 10 10 12 14 15 14 14 13 11 10 10 11 11 12 13 14 15 15 15 16 17 17 18 19 19 20 21 21 21 22 22 22 22 23 23 23 23 23 23 22 21 21 21 20 20 20 20
11 13 14 15 15 15 15 15 14 13 11 12 12 11 10 9 9 10 13 15 16 16 16 14 12 11 11 12 13 14 15 17 17 17 17 17 18 19 20 20 21 21 22 22 23 23 23 23 23 24 24 24 23 23 23 22 23 23 21 20 21 22
16 13 13 13 14 15 16 17 16 15 13 12 12 11 11 12 12 12 13 15 15 15 15 14 13 12 12 13 14 15 17 18 19 19 19 19 20 20 21 21 21 22 22 22 23 23 23 23 23 23 23 23 23 22 22 22 22 22 22 22 23 23
17 12 12 13 14 15 15 17 18 18 16 14 13 13 14 16 15 14 14 14 13 13 13 13 13 13 13 14 15 16 17 18 19 19 20 21 21 21 22 22 22 23 23 23 23 23 23 23 23 23 22 22 21 21 20 20 21 21 22 22 22 22
14 12 13 14 16 17 16 17 17 18 18 16 15 15 16 18 18 16 14 13 12 12 13 14 14 15 15 15 15 16 16 17 18 19 20 21 22 22 23 23 24 24 24 24 23 23 22 22 22 21 21 20 19 19 18 18 18 19 19 20 20 20
11 11 14 16 16 18 20 20 19 19 19 18 16 16 16 17 19 19 17 14 12 12 13 14 14 15 15 16 16 16 16 17 17 18 19 20 22 23 24 24 25 25 25 24 23 22 21 20 19 19 18 17 17 16 15 15 15 16 16 16 17 18
12 9 12 14 15 17 20 22 21 20 20 20 19 18 18 17 18 21 19 14 12 12 13 14 14 14 15 15 15 15 15 16 16 17 19 20 21 22 23 24 24 25 25 24 23 22 20 18 17 16 15 15 14 13 13 13 13 13 13 13 14 15
14 9 11 12 13 15 17 19 20 21 22 22 21 21 21 20 20 21 22 17 14 13 13 13 14 14 15 15 15 15 15 15 16 17 18 19 20 21 22 23 23 24 24 23 23 22 20 19 17 16 15 14 13 12 11 10 10 10 10 10 10 11
14 12 14 13 11 13 14 15 16 18 22 22 21 22 24 25 24 23 24 20 16 16 15 15 15 15 15 15 15 15 15 15 15 16 18 19 20 21 22 22 23 23 23 22 22 21 20 18 17 16 15 14 13 12 11 10 9 8 9 9 8 9
18 18 19 15 12 13 13 14 16 17 20 21 20 22 24 26 26 25 25 23 20 19 18 17 16 16 16 16 15 15 15 15 15 16 17 18 19 20 21 21 21 21 21 21 20 20 19 18 17 16 15 14 14 13 12 11 10 10 9 9 9 9
21 20 19 17 15 14 14 16 18 18 20 21 21 22 23 27 30 27 26 26 25 22 20 18 16 16 17 16 16 15 15 14 14 15 15 16 17 18 18 19 19 19 19 19 19 18 18 18 17 16 16 15 15 14 13 13 12 11 10 9 9 9
Wind_Direction
268 266 271 273 267 259 251 247 249 249 244 241 242 247 255 258 264 275 285 293 296 297 300 303 302 300 299 297 292 286 282 280 278 276 275 275 270 263 257 253 247 239 232 228 227 226 226 229 236 240 240 240 241 242 244 247 248 249 250 251 252 253
262 256 261 266 259 250 250 258 253 241 234 231 237 251 260 262 268 277 286 292 295 295 297 299 298 296 294 292 288 285 282 279 278 277 276 274 273 267 259 255 251 243 235 229 227 228 229 230 234 239 242 242 242 242 242 244 245 246 247 247 249 251
261 254 255 256 251 245 251 256 242 228 225 228 243 262 265 265 271 278 287 292 294 296 298 297 294 292 290 287 284 283 283 281 279 277 275 273 271 265 258 255 252 247 239 233 228 228 230 231 233 238 241 243 243 241 241 242 243 244 244 245 246 248
261 258 255 252 246 244 245 242 236 231 227 233 253 265 267 269 274 280 286 289 292 299 302 299 294 290 289 286 284 283 283 283 280 275 272 268 264 259 255 253 251 247 242 236 230 228 229 230 232 235 238 240 241 240 239 239 240 241 242 242 242 244
265 258 249 245 242 237 231 228 235 233 226 243 264 267 272 275 278 283 284 284 288 295 303 304 298 291 288 285 283 282 282 280 277 274 268 261 257 253 250 249 248 246 243 239 233 228 228 229 230 233 236 237 239 238 237 237 238 238 239 239 239 240
258 245 230 232 234 228 223 223 231 240 238 260 270 275 284 283 283 286 285 284 285 289 297 300 298 292 287 284 283 281 280 278 274 271 265 258 253 249 248 247 247 246 243 240 234 229 226 227 229 231 234 235 236 236 236 236 236 237 237 237 237 238
248 233 225 228 225 220 221 227 241 260 272 273 274 286 294 291 291 294 295 289 286 290 294 295 294 292 288 283 280 276 275 275 273 266 260 255 250 248 249 248 247 246 243 240 235 230 226 225 227 229 232 235 236 237 237 237 237 238 238 237 237 236
236 223 222 226 222 223 229 238 250 260 268 273 279 290 294 295 295 298 299 292 287 289 290 291 290 288 284 280 277 274 271 273 273 269 260 252 249 248 247 247 247 245 244 241 237 232 228 226 227 228 232 235 238 238 238 239 241 242 243 242 240 238
219 215 219 220 225 233 239 248 256 259 264 271 279 285 289 290 291 296 298 293 287 286 287 287 285 281 280 281 281 278 273 271 271 270 264 255 249 245 242 242 243 243 243 242 240 237 232 229 228 228 230 234 237 238 239 240 242 245 247 247 245 243
217 220 231 239 245 245 247 251 252 257 265 271 277 280 285 287 289 294 295 292 286 284 284 282 281 279 278 278 278 277 273 271 269 267 265 258 249 244 241 240 239 239 240 241 242 241 237 232 230 229 230 232 235 237 238 239 240 242 245 246 246 244
226 232 250 264 259 251 251 249 247 259 266 264 266 274 285 292 295 296 292 289 285 284 283 283 284 278 272 271 271 273 275 276 273 266 258 251 246 245 245 245 243 242 242 243 244 244 241 237 233 231 232 233 235 236 237 239 239 239 241 243 244 245
245 254 272 273 262 254 252 248 249 257 255 247 254 273 292 300 300 296 293 290 283 281 281 283 283 275 270 270 271 273 279 282 278 265 251 245 243 243 247 248 247 248 248 247 244 241 237 235 234 233 233 234 236 237 237 239 240 240 241 243 244 246
271 279 282 269 263 264 253 244 245 242 235 240 257 280 295 301 298 294 295 292 284 280 280 282 281 275 272 273 274 274 281 281 273 255 236 229 224 222 232 241 243 245 245 243 240 237 234 232 231 232 233 235 236 237 238 239 241 241 242 244 247 246
271 277 272 258 256 267 247 233 231 224 226 246 267 288 294 294 291 288 288 285 284 286 288 289 285 278 274 274 274 274 277 274 264 246 226 213 203 200 218 237 246 250 245 239 236 235 237 237 237 238 239 239 238 238 238 239 242 242 242 243 248 248
242 250 251 244 248 257 244 230 226 223 240 263 278 286 285 284 282 278 278 277 280 284 288 290 285 281 277 272 269 269 271 268 262 249 229 214 206 210 236 249 253 256 253 247 240 237 236 236 239 242 244 244 243 241 239 240 242 244 244 245 248 251
194 114 240 240 246 248 236 223 224 233 259 274 278 276 275 276 275 273 273 275 278 279 282 284 281 281 280 272 264 262 265 263 258 250 235 223 220 231 244 245 248 248 247 250 250 247 243 240 241 243 244 244 244 244 243 243 244 245 247 248 250 251
192 139 165 243 247 239 231 232 240 255 267 270 269 267 270 274 276 277 275 274 276 276 277 280 281 279 278 275 267 262 262 260 252 243 235 229 233 240 236 234 241 244 244 246 252 255 257 255 252 250 249 246 246 247 246 247 249 249 250 252 252 251
215 205 226 266 280 256 248 250 254 262 266 266 264 265 270 278 282 280 275 271 269 271 274 280 281 275 273 275 271 263 258 257 250 236 228 227 234 234 225 223 232 244 250 246 249 256 261 264 263 262 260 256 256 255 252 250 251 253 254 255 255 254
228 236 249 267 275 257 248 252 255 259 261 262 263 268 274 278 280 276 272 267 262 265 271 276 276 272 269 267 267 263 254 252 250 239 226 226 235 230 220 221 223 241 257 251 250 256 259 264 266 267 268 264 261 259 257 255 254 255 256 257 256 254
238 245 252 260 262 253 251 253 253 254 257 261 266 274 278 276 273 270 268 264 262 263 267 272 272 268 264 258 259 262 256 250 249 248 236 232 238 233 225 228 227 235 253 253 250 256 261 266 268 267 268 267 264 263 262 260 258 258 260 263 261 255
242 243 247 254 258 260 261 257 252 251 254 260 267 273 275 273 271 268 266 264 262 262 263 266 266 265 261 256 256 259 261 258 253 253 247 242 242 236 230 232 230 234 247 252 252 256 261 266 272 275 275 272 269 268 267 264 261 262 268 276 273 261
238 244 253 259 263 267 265 256 248 244 247 253 260 265 268 269 272 274 273 269 264 264 264 264 264 264 261 258 258 259 261 260 256 254 251 249 247 241 236 235 236 241 248 252 254 259 264 269 274 278 278 276 275 274 272 271 268 268 274 283 283 270
249 253 255 257 261 261 256 250 244 239 242 248 252 258 263 267 274 280 282 282 276 271 269 269 269 267 264 260 258 257 257 258 258 256 253 251 249 245 242 242 245 249 250 251 254 261 268 272 275 278 279 279 279 278 278 276 274 272 274 282 286 281
240 239 239 246 252 251 245 242 242 245 248 250 249 254 262 270 279 284 286 290 290 285 278 275 273 270 267 263 259 255 252 252 254 254 252 251 250 248 247 247 249 250 251 254 256 260 264 267 272 275 277 278 279 279 280 281 280 275 273 278 281 281
223 228 237 244 247 244 243 244 247 251 253 253 250 252 264 276 281 283 283 289 296 298 292 285 279 273 267 263 261 258 253 249 248 247 248 249 250 250 250 251 252 254 257 259 260 261 262 264 269 272 273 276 278 279 281 284 284 279 274 275 275 275
239 251 254 250 247 248 253 258 258 254 252 253 252 254 268 276 278 277 276 278 287 294 294 289 283 277 269 262 258 256 254 250 246 244 243 244 246 247 249 250 252 255 258 261 263 263 264 266 268 271 273 275 277 279 280 281 280 278 276 273 271 271
271 266 264 259 256 256 258 260 259 257 255 254 252 257 271 280 282 278 274 275 279 287 291 287 279 272 267 262 257 254 252 250 246 243 242 241 242 243 245 247 249 251 254 257 260 262 264 266 267 269 271 273 275 277 278 277 277 279 277 273 270 268
253 252 259 266 270 269 269 267 264 262 260 255 251 253 267 282 293 288 282 281 282 286 289 288 282 271 263 257 253 252 250 249 248 245 244 243 243 244 245 246 248 250 252 254 256 258 260 263 265 267 269 271 273 275 277 276 277 279 276 272 273 273
235 236 246 260 271 276 280 279 276 274 271 265 255 253 266 280 290 293 290 289 287 286 284 282 280 274 266 256 248 245 243 244 245 245 245 245 246 247 248 249 250 252 253 255 257 258 260 261 263 266 268 270 271 272 273 274 275 276 275 275 275 275
229 239 249 259 267 272 280 281 281 278 275 272 263 260 272 281 287 290 289 289 288 284 278 273 271 268 264 258 251 245 241 241 243 245 246 248 249 250 252 253 254 255 257 258 259 260 261 262 264 266 268 269 271 272 272 272 272 273 275 276 276 274
236 251 258 261 266 272 278 279 276 272 269 267 262 261 269 278 287 291 286 286 285 279 271 265 262 261 258 256 253 249 245 244 245 246 248 250 252 254 256 257 257 257 258 258 259 259 260 261 263 266 268 270 272 275 276 276 275 274 274 276 277 275
244 253 258 258 265 275 281 280 274 269 267 264 260 259 263 272 285 291 289 284 280 273 270 265 260 258 256 254 253 250 249 248 248 249 251 252 253 255 256 257 258 258 258 257 257 257 257 258 260 263 266 271 274 277 280 282 281 280 280 281 281 280
248 261 263 258 264 273 279 279 270 263 261 259 258 257 258 265 279 287 286 280 273 269 269 269 263 257 255 254 253 252 251 252 252 253 253 253 254 255 255 256 258 258 259 258 257 256 255 255 256 258 261 266 271 276 280 282 284 285 286 288 289 288
260 282 283 275 275 277 282 280 268 258 255 255 257 257 258 264 270 278 280 275 266 262 263 267 266 260 256 256 255 255 254 254 255 255 255 255 255 254 254 255 255 257 258 258 257 255 254 253 253 254 256 259 263 268 271 274 278 280 283 286 288 287
266 280 289 293 285 281 287 284 272 264 262 262 264 262 263 266 265 267 273 273 264 258 258 262 264 261 256 254 254 254 254 253 254 255 256 257 256 256 255 254 253 253 254 255 255 255 255 254 253 253 253 254 255 258 259 260 261 262 265 267 270 272
268 272 280 282 272 274 285 285 277 271 270 271 269 265 264 266 263 260 265 269 265 257 256 258 259 258 255 252 250 250 250 251 252 254 255 256 256 255 254 253 253 252 253 254 255 256 257 257 258 258 258 258 257 256 255 254 253 254 258 262 265 268
269 271 274 273 269 275 284 283 280 277 274 275 272 270 272 271 264 257 256 262 263 255 251 251 253 256 255 252 249 248 248 249 250 252 254 254 254 254 254 253 252 252 252 253 254 256 258 260 261 262 262 262 260 258 256 254 254 255 259 265 271 276
Height
5808 5806 5803 5805 5808 5808 5807 5806 5808 5809 5810 5812 5814 5815 5816 5817 5818 5819 5820 5820 5820 5820 5820 5819 5819 5818 5818 5818 5818 5818 5818 5818 5818 5818 5817 5817 5818 5818 5819 5819 5820 5821 5823 5823 5825 5826 5827 5828 5828 5828 5829 5830 5830 5831 5832 5833 5834 5835 5835 5836 5836 5837
5805 5806 5804 5805 5806 5806 5806 5805 5806 5807 5807 5810 5812 5813 5814 5815 5816 5817 5818 5818 5818 5818 5818 5818 5817 5816 5816 5816 5816 5816 5816 5816 5816 5815 5815 5815 5815 5816 5817 5817 5818 5819 5820 5821 5823 5824 5825 5826 5826 5826 5827 5827 5828 5829 5830 5830 5832 5833 5834 5834 5835 5835
5801 5804 5804 5804 5805 5805 5805 5805 5804 5805 5806 5808 5810 5811 5812 5813 5814 5816 5816 5816 5816 5816 5816 5816 5815 5814 5814 5814 5814 5814 5814 5814 5813 5813 5813 5813 5813 5814 5814 5814 5815 5817 5818 5819 5820 5821 5822 5823 5824 5824 5824 5825 5826 5827 5828 5828 5829 5831 5832 5833 5833 5834
5799 5802 5803 5803 5804 5804 5805 5805 5804 5804 5804 5806 5807 5808 5810 5811 5813 5814 5814 5814 5814 5814 5814 5814 5813 5812 5812 5812 5812 5812 5811 5811 5811 5811 5811 5810 5810 5811 5811 5812 5813 5814 5815 5817 5818 5819 5820 5821 5821 5821 5821 5822 5823 5825 5826 5826 5827 5828 5830 5831 5832 5832
5797 5799 5800 5801 5802 5803 5804 5804 5804 5803 5803 5804 5805 5806 5808 5810 5811 5811 5811 5811 5811 5812 5812 5812 5811 5811 5810 5810 5810 5809 5810 5810 5810 5809 5809 5808 5808 5808 5808 5809 5810 5811 5812 5814 5815 5817 5818 5819 5819 5819 5819 5819 5820 5822 5823 5824 5825 5825 5827 5828 5829 5830
5796 5797 5798 5798 5799 5802 5803 5803 5802 5801 5801 5803 5804 5805 5808 5809 5809 5809 5809 5809 5809 5810 5810 5810 5809 5809 5809 5808 5808 5808 5808 5808 5808 5807 5807 5806 5806 5806 5806 5807 5807 5808 5809 5811 5812 5814 5815 5816 5816 5816 5817 5817 5818 5819 5820 5821 5822 5822 5824 5825 5827 5829
5796 5797 5797 5796 5797 5800 5802 5802 5801 5800 5799 5801 5803 5805 5806 5807 5807 5807 5807 5807 5807 5808 5808 5807 5807 5807 5807 5807 5807 5806 5806 5806 5806 5806 5805 5805 5805 5804 5804 5805 5805 5806 5807 5808 5810 5811 5812 5813 5814 5814 5815 5815 5816 5817 5818 5818 5819 5820 5821 5823 5825 5826
5794 5797 5797 5796 5795 5797 5800 5801 5801 5799 5798 5800 5803 5804 5805 5805 5805 5805 5806 5806 5806 5806 5806 5806 5806 5806 5806 5805 5805 5805 5805 5805 5805 5804 5804 5804 5804 5803 5803 5803 5803 5804 5805 5806 5807 5808 5810 5811 5812 5812 5813 5813 5814 5815 5816 5816 5817 5818 5820 5821 5823 5824
5792 5796 5798 5796 5795 5796 5797 5798 5799 5797 5798 5800 5801 5802 5803 5803 5803 5804 5805 5805 5805 5804 5804 5804 5804 5804 5804 5804 5804 5804 5803 5803 5803 5802 5802 5802 5802 5802 5801 5801 5801 5802 5803 5804 5805 5806 5807 5809 5810 5811 5811 5812 5812 5813 5814 5814 5815 5817 5818 5819 5821 5822
5791 5794 5796 5796 5797 5798 5796 5796 5797 5798 5798 5799 5800 5801 5801 5802 5802 5803 5803 5803 5803 5803 5802 5802 5802 5802 5802 5802 5802 5801 5801 5801 5800 5801 5800 5800 5800 5800 5800 5800 5800 5801 5801 5802 5803 5804 5805 5807 5808 5809 5809 5809 5810 5810 5811 5812 5813 5814 5815 5816 5817 5818
5791 5793 5794 5795 5796 5797 5796 5795 5796 5797 5798 5798 5799 5799 5800 5800 5801 5801 5802 5802 5801 5801 5800 5800 5801 5801 5800 5801 5800 5799 5799 5799 5799 5799 5798 5798 5798 5799 5800 5800 5800 5800 5800 5801 5802 5803 5804 5805 5806 5806 5807 5807 5807 5808 5809 5810 5810 5811 5812 5813 5814 5816
5791 5793 5794 5793 5794 5795 5794 5794 5795 5796 5796 5797 5798 5798 5799 5799 5799 5799 5800 5800 5799 5799 5799 5799 5799 5799 5798 5799 5800 5799 5798 5798 5798 5797 5797 5797 5798 5799 5799 5799 5798 5799 5800 5800 5801 5801 5801 5802 5803 5804 5804 5805 5805 5806 5806 5807 5807 5809 5810 5811 5812 5813
5790 5791 5791 5791 5792 5792 5791 5792 5794 5794 5794 5795 5795 5796 5797 5798 5798 5798 5798 5798 5797 5797 5797 5799 5799 5797 5797 5798 5798 5798 5797 5797 5797 5796 5796 5796 5797 5797 5798 5798 5798 5798 5798 5799 5799 5799 5799 5799 5800 5801 5802 5802 5803 5804 5804 5804 5805 5806 5807 5808 5809 5810
5787 5788 5788 5789 5791 5790 5790 5791 5792 5792 5792 5792 5793 5794 5795 5796 5797 5797 5796 5796 5796 5795 5797 5798 5798 5797 5797 5797 5797 5797 5796 5796 5796 5795 5794 5795 5795 5796 5796 5797 5797 5797 5797 5797 5797 5798 5798 5799 5799 5800 5800 5801 5801 5802 5802 5802 5802 5803 5805 5806 5806 5807
5784 5785 5786 5788 5790 5790 5790 5791 5790 5790 5790 5791 5792 5793 5794 5795 5796 5796 5796 5795 5795 5795 5796 5797 5797 5797 5796 5796 5796 5795 5795 5794 5794 5794 5794 5794 5794 5794 5794 5795 5795 5795 5795 5796 5796 5796 5797 5798 5798 5799 5799 5799 5799 5799 5800 5800 5800 5801 5802 5803 5804 5804
5783 5784 5785 5788 5789 5789 5789 5789 5789 5789 5789 5790 5791 5792 5793 5794 5795 5795 5795 5794 5793 5793 5795 5795 5795 5795 5795 5795 5795 5794 5793 5793 5793 5793 5793 5794 5793 5793 5793 5793 5793 5794 5794 5795 5795 5796 5796 5796 5797 5797 5797 5797 5798 5798 5798 5798 5799 5799 5800 5801 5801 5802
5782 5783 5785 5787 5788 5787 5787 5788 5788 5788 5788 5789 5790 5791 5792 5792 5793 5793 5793 5793 5792 5792 5793 5793 5793 5794 5793 5794 5794 5793 5792 5791 5792 5792 5793 5793 5793 5793 5792 5792 5792 5792 5793 5794 5794 5795 5795 5796 5796 5796 5796 5796 5796 5797 5797 5797 5797 5798 5798 5798 5798 5800
5782 5783 5784 5785 5785 5785 5785 5786 5786 5786 5786 5787 5788 5789 5790 5790 5791 5791 5792 5791 5791 5790 5791 5791 5791 5792 5792 5792 5792 5792 5791 5791 5791 5791 5791 5792 5792 5792 5792 5792 5793 5791 5791 5792 5793 5793 5794 5795 5795 5795 5795 5795 5795 5796 5796 5796 5796 5796 5796 5796 5796 5797
5780 5781 5781 5782 5783 5784 5784 5784 5785 5785 5785 5785 5786 5787 5788 5788 5789 5789 5790 5790 5789 5789 5789 5789 5789 5789 5790 5791 5791 5791 5791 5790 5790 5789 5789 5790 5790 5791 5791 5792 5792 5790 5790 5790 5791 5792 5793 5793 5794 5794 5795 5794 5794 5795 5795 5795 5795 5795 5795 5794 5794 5795
5778 5779 5779 5780 5781 5782 5782 5783 5783 5783 5784 5784 5784 5785 5786 5787 5787 5788 5788 5788 5787 5787 5787 5787 5787 5788 5788 5789 5790 5790 5790 5789 5789 5788 5788 5788 5788 5789 5790 5790 5790 5789 5788 5789 5790 5790 5791 5791 5792 5793 5793 5793 5793 5793 5794 5794 5794 5794 5794 5793 5793 5793
5777 5777 5777 5778 5779 5779 5780 5780 5781 5782 5782 5782 5782 5783 5784 5785 5785 5786 5786 5786 5786 5785 5785 5785 5785 5786 5787 5788 5788 5788 5788 5788 5787 5787 5787 5787 5787 5787 5788 5788 5788 5788 5787 5787 5788 5789 5789 5790 5790 5791 5792 5792 5792 5792 5792 5792 5793 5793 5792 5791 5790 5790
5775 5774 5775 5775 5776 5777 5778 5778 5779 5779 5780 5780 5781 5781 5782 5782 5783 5783 5783 5784 5784 5784 5784 5784 5784 5784 5785 5786 5786 5786 5786 5786 5786 5785 5785 5785 5785 5786 5786 5786 5787 5787 5787 5787 5787 5787 5788 5788 5788 5789 5790 5790 5790 5790 5790 5790 5791 5791 5791 5790 5789 5789
5772 5772 5772 5772 5773 5775 5775 5776 5776 5777 5778 5779 5779 5779 5780 5780 5781 5781 5781 5782 5782 5782 5782 5782 5782 5783 5783 5784 5784 5784 5784 5784 5784 5784 5784 5784 5784 5784 5784 5785 5785 5786 5786 5786 5786 5786 5786 5786 5786 5787 5788 5788 5789 5789 5789 5789 5789 5790 5789 5789 5789 5788
5769 5769 5769 5770 5771 5772 5773 5774 5774 5775 5776 5777 5777 5777 5778 5778 5779 5779 5780 5780 5781 5781 5781 5781 5781 5781 5782 5782 5782 5782 5783 5782 5782 5782 5783 5782 5782 5782 5782 5783 5783 5784 5784 5784 5784 5784 5784 5784 5785 5785 5785 5786 5786 5787 5787 5787 5787 5788 5788 5788 5788 5787
5766 5767 5768 5769 5770 5771 5771 5772 5772 5773 5774 5774 5775 5776 5776 5776 5777 5778 5778 5779 5779 5780 5780 5780 5780 5780 5780 5780 5780 5780 5781 5781 5781 5781 5781 5781 5781 5781 5781 5781 5781 5782 5782 5782 5782 5782 5782 5782 5782 5782 5783 5784 5784 5785 5785 5785 5785 5786 5786 5786 5786 5785
5767 5768 5768 5768 5769 5769 5770 5770 5770 5771 5771 5772 5773 5773 5774 5775 5775 5776 5776 5777 5778 5778 5778 5778 5778 5778 5778 5778 5778 5778 5778 5779 5779 5779 5779 5780 5780 5780 5780 5780 5780 5780 5780 5780 5780 5780 5780 5780 5780 5780 5780 5781 5782 5782 5783 5783 5783 5783 5784 5785 5784 5784
5769 5768 5768 5768 5768 5768 5768 5768 5768 5768 5769 5770 5770 5771 5772 5773 5773 5774 5774 5774 5775 5776 5776 5776 5776 5776 5776 5776 5775 5776 5776 5777 5777 5777 5778 5778 5778 5778 5778 5778 5779 5779 5779 5779 5778 5778 5778 5778 5777 5777 5778 5779 5779 5780 5781 5781 5782 5782 5783 5783 5783 5783
5765 5765 5766 5767 5767 5767 5767 5767 5766 5767 5767 5768 5769 5770 5771 5771 5772 5772 5772 5772 5772 5773 5773 5774 5774 5774 5774 5773 5773 5773 5774 5774 5774 5775 5775 5776 5776 5776 5776 5776 5777 5777 5777 5777 5777 5776 5776 5775 5775 5775 5775 5776 5777 5777 5778 5779 5779 5780 5781 5781 5781 5781
5760 5762 5763 5765 5765 5766 5767 5767 5767 5767 5767 5768 5768 5769 5770 5770 5770 5770 5770 5770 5770 5770 5771 5771 5771 5771 5771 5771 5771 5771 5772 5772 5772 5772 5773 5773 5773 5774 5774 5774 5774 5775 5775 5775 5775 5774 5774 5773 5773 5773 5773 5773 5774 5775 5775 5776 5777 5777 5778 5779 5779 5779
5757 5759 5761 5763 5763 5763 5764 5765 5766 5766 5766 5767 5768 5768 5768 5768 5768 5769 5768 5767 5767 5768 5768 5768 5768 5768 5768 5768 5768 5769 5769 5770 5770 5770 5771 5771 5771 5772 5772 5772 5772 5772 5773 5773 5772 5772 5772 5771 5771 5770 5770 5771 5771 5772 5773 5773 5774 5774 5776 5776 5776 5776
5757 5759 5760 5761 5761 5761 5762 5763 5764 5764 5765 5766 5767 5767 5767 5767 5766 5767 5767 5766 5765 5765 5766 5766 5766 5766 5766 5766 5766 5766 5767 5767 5767 5768 5769 5769 5769 5770 5770 5770 5770 5770 5770 5770 5770 5770 5770 5769 5768 5768 5768 5768 5768 5769 5770 5770 5771 5771 5772 5773 5773 5773
5758 5759 5759 5758 5759 5759 5760 5761 5762 5762 5763 5764 5766 5766 5766 5766 5765 5764 5765 5765 5764 5764 5764 5763 5763 5764 5764 5764 5764 5764 5764 5764 5765 5765 5766 5767 5767 5768 5768 5768 5768 5768 5768 5768 5768 5767 5767 5767 5766 5766 5766 5766 5766 5766 5767 5767 5767 5768 5769 5769 5770 5770
5757 5757 5757 5757 5757 5758 5758 5758 5759 5760 5761 5762 5763 5764 5764 5764 5763 5762 5762 5763 5762 5762 5762 5762 5761 5761 5761 5761 5761 5761 5762 5762 5762 5763 5764 5764 5765 5765 5766 5766 5766 5766 5766 5766 5765 5765 5765 5764 5764 5764 5764 5764 5764 5764 5764 5765 5765 5765 5766 5766 5767 5767
5754 5755 5755 5755 5755 5755 5755 5755 5755 5757 5757 5758 5760 5761 5761 5761 5761 5760 5759 5760 5760 5760 5760 5760 5759 5759 5759 5759 5759 5759 5760 5760 5760 5761 5761 5762 5763 5763 5764 5764 5764 5764 5764 5764 5763 5763 5763 5762 5762 5762 5762 5762 5762 5763 5763 5763 5763 5763 5763 5763 5764 5764
5752 5754 5754 5753 5753 5753 5753 5753 5753 5754 5754 5755 5757 5757 5757 5757 5757 5757 5756 5757 5758 5757 5757 5758 5757 5757 5757 5757 5757 5758 5758 5758 5759 5759 5760 5760 5761 5761 5762 5762 5762 5762 5762 5761 5761 5761 5761 5760 5760 5760 5760 5760 5760 5761 5761 5761 5761 5761 5761 5761 5761 5762
5751 5753 5753 5753 5752 5751 5752 5752 5752 5752 5752 5752 5753 5753 5753 5752 5753 5754 5753 5754 5755 5755 5755 5755 5755 5756 5756 5756 5756 5756 5756 5757 5757 5757 5758 5758 5759 5759 5760 5760 5760 5760 5760 5759 5759 5759 5759 5759 5759 5759 5759 5759 5759 5759 5759 5759 5760 5760 5760 5760 5760 5760
5751 5752 5753 5752 5751 5750 5751 5751 5750 5749 5749 5749 5749 5749 5750 5749 5748 5750 5751 5751 5751 5752 5752 5753 5753 5754 5754 5754 5754 5754 5754 5755 5755 5756 5756 5757 5757 5757 5757 5758 5758 5758 5758 5758 5758 5758 5758 5758 5757 5757 5757 5757 5757 5757 5757 5758 5758 5758 5759 5759 5759 5759